Location: Cheching
(60.0667°N, 164.2167°W)
Time: 02:56:03
(UTC+00:00)

UNISAT 6 - Pass Details

Date: 23 January 2021
Orbit: 607 x 687 km, 97.7° (Epoch: 05 March)

Event Time Altitude Azimuth Distance (km) Brightness Sun altitude
Rises 17:42:15 0° 173° (S) 2,873 ? -12.6°
Reaches altitude 10° 17:44:26 10° 177° (S) 1,979 ? -12.3°
Maximum altitude 17:48:41 60° 258° (WSW) 721 ? -11.8°
Drops below altitude 10° 17:53:04 10° 339° (NNW) 2,033 ? -11.3°
Enters shadow 17:55:06 - 343° (NNW) 2,862 ? -11.0°
